Powrót do katalogu

CZ-6A DEB

AktywnyPO
NORAD 60891·DEBRIS·🇨🇳 China

Wystrzelony Aug 6, 2024 z Taiyuan Satellite Launch Center

Loading…

Następne Przeloty (najbliższe 24 godziny)

TLE

ŚwieżeSource: Space-Track

Epoka: Sep 14, 2026, 09:09 UTC

1 60891U 24140KW  26257.38183733  .00000519  00000-0  27150-3 0  9996
2 60891  89.3280 295.0420 0083408 290.9418  68.2855 14.11345677106644

Śledź CZ-6A DEB w czasie rzeczywistym z AllMySat

Download on the App Store